Location: Amsterdam
(30.7274°N, 84.4357°W)
Time: 14:35:06
(UTC+00:00)

Vanguard 1 Rocket - Pass Details

Date: 24 February 2026
Orbit: 653 x 4214 km, 34.3° (Epoch: 6 March)

Event Time Altitude Azimuth Distance (km) Brightness Sun altitude
Rises 23:38:15 0° 287° (WNW) 5,817 12.8 -2.0°
Reaches altitude 10° 23:41:32 10° 283° (WNW) 5,194 12.7 -2.7°
Maximum altitude 23:57:42 52° 213° (SSW) 4,184 11.1 -6.1°
Drops below altitude 10° 00:22:01 10° 145° (SE) 7,396 11.7 -11.3°
Sets 00:28:02 0° 141° (SE) 8,320 11.9 -12.6°
